User: anonymous   Login
Location: Unspecified
(0.0000°N, 0.0000°E)
Time: 02:54:57
(UTC+00:00)
Language:

USA 169 - Orbit

View from above orbital plane
View from above orbital plane
View from above satellite
View from above satellite

Ground track
Ground track

The orbit data is extracted from the following two-line orbital elements,

1 27711U 03012A   18300.36981174 0.00000000  00000-0  00000-0 0    08
2 27711   8.1540  48.7923 0004225 198.6607 161.3355  1.00270000    05
Epoch (UTC): 27 October 2018 08:52:31
Eccentricity: 0.0004225
inclination: 8.1540°
perigee height: 35769 km
apogee height: 35804 km
right ascension of ascending node: 48.7923°
argument of perigee: 198.6607°
revolutions per day: 1.00270000
mean anomaly at epoch: 161.3355°
orbit number at epoch: 0

The dashed part of the orbit path shows where the satellite is in the earth's shadow,  

DLR